AAL1723 MMUN-KMIA

Flight info

Callsign AAL1723
Flight time 1h 6m
Altitude 33000
Route NUDAL UV106 PODON UG765 MAXIM SNDBR3
Aircraft B738/M-VGDW/C

Departure

Time 2026-05-03 22:50
Airport Cancún International Airport (MMUN)

Arrival

Time 2026-05-03 23:57
Airport Miami International Airport (KMIA)
Time Latitude Longitude Altitude Speed Heading
2026-05-03 22:41 21.03601 -86.87000 33 ft 0 kts 34°
2026-05-03 22:41 21.03597 -86.87003 33 ft 2 kts 34°
2026-05-03 22:41 21.03584 -86.87012 33 ft 2 kts 34°
2026-05-03 22:42 21.03572 -86.87021 33 ft 2 kts 34°
2026-05-03 22:42 21.03560 -86.87029 33 ft 0 kts 34°
2026-05-03 22:42 21.03551 -86.87035 33 ft 2 kts 15°
2026-05-03 22:42 21.03536 -86.87036 33 ft 2 kts 348°
2026-05-03 22:43 21.03523 -86.87030 33 ft 2 kts 321°
2026-05-03 22:43 21.03516 -86.87023 33 ft 0 kts 304°
2026-05-03 22:43 21.03512 -86.87017 33 ft 0 kts 302°
2026-05-03 22:45 21.03513 -86.87018 33 ft 2 kts 302°
2026-05-03 22:45 21.03541 -86.87067 32 ft 10 kts 298°
2026-05-03 22:45 21.03522 -86.87149 30 ft 12 kts 266°
2026-05-03 22:45 21.03558 -86.87234 29 ft 12 kts 303°
2026-05-03 22:46 21.03619 -86.87328 27 ft 17 kts 304°
2026-05-03 22:46 21.03687 -86.87436 25 ft 17 kts 303°
2026-05-03 22:46 21.03752 -86.87542 24 ft 16 kts 303°
2026-05-03 22:46 21.03819 -86.87649 24 ft 18 kts 304°
2026-05-03 22:47 21.03894 -86.87769 24 ft 20 kts 303°
2026-05-03 22:47 21.03975 -86.87900 24 ft 22 kts 304°
2026-05-03 22:47 21.04065 -86.88041 25 ft 23 kts 303°
2026-05-03 22:47 21.04155 -86.88187 27 ft 23 kts 303°
2026-05-03 22:48 21.04246 -86.88334 30 ft 23 kts 303°
2026-05-03 22:48 21.04339 -86.88482 33 ft 24 kts 303°
2026-05-03 22:48 21.04432 -86.88632 35 ft 24 kts 304°
2026-05-03 22:48 21.04528 -86.88781 35 ft 23 kts 304°
2026-05-03 22:49 21.04616 -86.88921 36 ft 21 kts 303°
2026-05-03 22:49 21.04587 -86.89046 35 ft 18 kts 214°
2026-05-03 22:49 21.04491 -86.89034 33 ft 16 kts 123°
2026-05-03 22:49 21.04399 -86.88888 33 ft 51 kts 124°
2026-05-03 22:50 21.04037 -86.88309 28 ft 135 kts 123°
2026-05-03 22:50 21.03379 -86.87251 143 ft 193 kts 123°
2026-05-03 22:50 21.02665 -86.86075 1101 ft 197 kts 122°
2026-05-03 22:50 21.01897 -86.84747 1689 ft 230 kts 120°
2026-05-03 22:51 21.00995 -86.83073 1445 ft 277 kts 118°
2026-05-03 22:51 21.00189 -86.81419 2480 ft 229 kts 114°
2026-05-03 22:51 20.99679 -86.79791 2667 ft 241 kts 104°
2026-05-03 22:51 20.99109 -86.78091 2276 ft 243 kts 117°
2026-05-03 22:52 20.98327 -86.76566 2205 ft 230 kts 108°
2026-05-03 22:52 20.98154 -86.74931 3020 ft 221 kts 84°
2026-05-03 22:52 20.98454 -86.73504 4449 ft 194 kts 72°
2026-05-03 22:52 20.98949 -86.72052 4454 ft 243 kts 67°
2026-05-03 22:53 20.99783 -86.70064 2641 ft 361 kts 65°
2026-05-03 22:53 21.00928 -86.67636 3174 ft 352 kts 63°
2026-05-03 22:53 21.01973 -86.65552 5084 ft 311 kts 61°
2026-05-03 22:53 21.03016 -86.63549 5861 ft 307 kts 59°
2026-05-03 22:54 21.03984 -86.61564 6681 ft 294 kts 66°
2026-05-03 22:54 21.04659 -86.59461 7434 ft 299 kts 72°
2026-05-03 22:54 21.05189 -86.57374 8529 ft 297 kts 73°
2026-05-03 22:54 21.05696 -86.55247 9473 ft 299 kts 73°
2026-05-03 22:55 21.06258 -86.53079 10321 ft 304 kts 71°
2026-05-03 22:55 21.06866 -86.50875 10821 ft 317 kts 71°
2026-05-03 22:55 21.07507 -86.48589 11339 ft 332 kts 71°
2026-05-03 22:55 21.08194 -86.46146 11835 ft 348 kts 71°
2026-05-03 22:56 21.08900 -86.43653 12483 ft 357 kts 71°
2026-05-03 22:56 21.09633 -86.41075 13172 ft 364 kts 71°
2026-05-03 22:56 21.10368 -86.38481 13881 ft 370 kts 71°
2026-05-03 22:56 21.11114 -86.35853 14587 ft 375 kts 71°
2026-05-03 22:57 21.11881 -86.33174 15294 ft 380 kts 71°
2026-05-03 22:57 21.12669 -86.30462 15973 ft 384 kts 71°
2026-05-03 22:57 21.13476 -86.27724 16599 ft 389 kts 71°
2026-05-03 22:57 21.14301 -86.24951 17214 ft 395 kts 71°
2026-05-03 22:58 21.15153 -86.22111 17627 ft 405 kts 71°
2026-05-03 22:58 21.16014 -86.19254 18202 ft 410 kts 71°
2026-05-03 22:58 21.16890 -86.16341 18794 ft 414 kts 71°
2026-05-03 22:58 21.17781 -86.13378 19343 ft 419 kts 71°
2026-05-03 22:59 21.18670 -86.10420 19889 ft 423 kts 71°
2026-05-03 22:59 21.19572 -86.07405 20490 ft 425 kts 71°
2026-05-03 22:59 21.20474 -86.04385 21004 ft 429 kts 71°
2026-05-03 22:59 21.21389 -86.01320 21507 ft 433 kts 70°
2026-05-03 23:00 21.22303 -85.98244 21991 ft 438 kts 70°
2026-05-03 23:00 21.23229 -85.95114 22434 ft 443 kts 71°
2026-05-03 23:00 21.24151 -85.91998 22885 ft 447 kts 71°
2026-05-03 23:00 21.25095 -85.88818 23416 ft 449 kts 71°
2026-05-03 23:01 21.26054 -85.85594 23879 ft 452 kts 71°
2026-05-03 23:01 21.27001 -85.82420 24348 ft 455 kts 70°
2026-05-03 23:01 21.27971 -85.79172 24721 ft 460 kts 70°
2026-05-03 23:01 21.28948 -85.75909 25117 ft 464 kts 70°
2026-05-03 23:02 21.29938 -85.72611 25488 ft 469 kts 70°
2026-05-03 23:02 21.30945 -85.69257 26027 ft 469 kts 70°
2026-05-03 23:02 21.31942 -85.65945 26608 ft 467 kts 70°
2026-05-03 23:02 21.32926 -85.62672 27174 ft 465 kts 70°
2026-05-03 23:03 21.33915 -85.59390 27767 ft 462 kts 70°
2026-05-03 23:03 21.34900 -85.56125 28272 ft 462 kts 70°
2026-05-03 23:03 21.35897 -85.52848 28768 ft 461 kts 70°
2026-05-03 23:03 21.36880 -85.49627 29237 ft 460 kts 70°
2026-05-03 23:04 21.37881 -85.46340 29698 ft 460 kts 70°
2026-05-03 23:04 21.38862 -85.43107 30106 ft 460 kts 70°
2026-05-03 23:04 21.39839 -85.39860 30541 ft 459 kts 70°
2026-05-03 23:04 21.40813 -85.36614 30919 ft 460 kts 70°
2026-05-03 23:05 21.41795 -85.33328 31262 ft 461 kts 70°
2026-05-03 23:05 21.43002 -85.30153 31540 ft 459 kts 59°
2026-05-03 23:05 21.44617 -85.27242 31828 ft 458 kts 52°
2026-05-03 23:06 21.48738 -85.21959 31887 ft 467 kts 39°
2026-05-03 23:06 21.53879 -85.17642 31951 ft 474 kts 27°
2026-05-03 23:07 21.59617 -85.13941 32120 ft 486 kts 26°
2026-05-03 23:07 21.62502 -85.12016 32367 ft 489 kts 27°
2026-05-03 23:07 21.65310 -85.10014 32804 ft 488 kts 29°
2026-05-03 23:07 21.68123 -85.07886 32959 ft 493 kts 31°
2026-05-03 23:08 21.70873 -85.05708 32961 ft 495 kts 32°
2026-05-03 23:08 21.76343 -85.01174 32962 ft 496 kts 33°
2026-05-03 23:09 21.81741 -84.96584 32961 ft 496 kts 33°
2026-05-03 23:09 21.87126 -84.91980 32968 ft 497 kts 33°
2026-05-03 23:10 21.92557 -84.87341 32968 ft 497 kts 33°
2026-05-03 23:10 21.97977 -84.82717 32970 ft 499 kts 33°
2026-05-03 23:11 22.03426 -84.78069 32970 ft 498 kts 33°
2026-05-03 23:11 22.08843 -84.73444 32976 ft 498 kts 33°
2026-05-03 23:12 22.14259 -84.68819 32973 ft 498 kts 33°
2026-05-03 23:12 22.19666 -84.64196 32980 ft 499 kts 33°
2026-05-03 23:13 22.25114 -84.59533 32973 ft 498 kts 33°
2026-05-03 23:13 22.30566 -84.54862 32977 ft 500 kts 33°
2026-05-03 23:14 22.36001 -84.50201 32982 ft 501 kts 33°
2026-05-03 23:14 22.41466 -84.45509 32978 ft 499 kts 33°
2026-05-03 23:15 22.46901 -84.40840 32978 ft 504 kts 33°
2026-05-03 23:15 22.52397 -84.36112 32980 ft 501 kts 33°
2026-05-03 23:16 22.57834 -84.31428 32984 ft 503 kts 34°
2026-05-03 23:16 22.63301 -84.26629 32979 ft 506 kts 37°
2026-05-03 23:17 22.68285 -84.21242 32979 ft 509 kts 44°
2026-05-03 23:17 22.72914 -84.15421 32984 ft 513 kts 46°
2026-05-03 23:18 22.77470 -84.09457 32979 ft 512 kts 46°
2026-05-03 23:18 22.82051 -84.03551 32977 ft 513 kts 46°
2026-05-03 23:19 22.86661 -83.97674 32980 ft 513 kts 45°
2026-05-03 23:19 22.91294 -83.91797 32986 ft 515 kts 45°
2026-05-03 23:20 22.95941 -83.85902 32987 ft 514 kts 45°
2026-05-03 23:20 23.00581 -83.80010 32983 ft 512 kts 45°
2026-05-03 23:21 23.05192 -83.74149 32978 ft 514 kts 45°
2026-05-03 23:21 23.09831 -83.68241 32976 ft 513 kts 45°
2026-05-03 23:22 23.16796 -83.59358 32979 ft 514 kts 45°
2026-05-03 23:22 23.21434 -83.53433 32978 ft 516 kts 45°
2026-05-03 23:23 23.26071 -83.47505 32981 ft 517 kts 45°
2026-05-03 23:23 23.30723 -83.41546 32981 ft 518 kts 45°
2026-05-03 23:24 23.35400 -83.35550 32984 ft 519 kts 45°
2026-05-03 23:24 23.40030 -83.29606 32985 ft 519 kts 45°
2026-05-03 23:25 23.44710 -83.23590 32986 ft 518 kts 45°
2026-05-03 23:25 23.49353 -83.17619 32986 ft 520 kts 46°
2026-05-03 23:26 23.54026 -83.11602 32988 ft 519 kts 46°
2026-05-03 23:26 23.58678 -83.05598 32987 ft 520 kts 46°
2026-05-03 23:27 23.63339 -82.99577 32987 ft 521 kts 46°
2026-05-03 23:27 23.68004 -82.93542 32987 ft 522 kts 46°
2026-05-03 23:28 23.72656 -82.87514 32987 ft 521 kts 46°
2026-05-03 23:28 23.77319 -82.81463 32987 ft 521 kts 46°
2026-05-03 23:29 23.81956 -82.75442 32985 ft 523 kts 46°
2026-05-03 23:29 23.86628 -82.69368 32985 ft 523 kts 46°
2026-05-03 23:30 23.91298 -82.63290 32986 ft 521 kts 46°
2026-05-03 23:30 23.95942 -82.57238 32988 ft 524 kts 46°
2026-05-03 23:31 24.00645 -82.51113 32985 ft 523 kts 46°
2026-05-03 23:31 24.05492 -82.45246 32986 ft 521 kts 43°
2026-05-03 23:32 24.10527 -82.39532 32986 ft 522 kts 41°
2026-05-03 23:32 24.15458 -82.33659 32987 ft 525 kts 49°
2026-05-03 23:33 24.19398 -82.26952 32989 ft 530 kts 60°
2026-05-03 23:33 24.22702 -82.19712 32986 ft 530 kts 64°
2026-05-03 23:34 24.25762 -82.12426 32987 ft 529 kts 64°
2026-05-03 23:34 24.28826 -82.05118 32986 ft 530 kts 64°
2026-05-03 23:35 24.31935 -81.97819 32986 ft 531 kts 64°
2026-05-03 23:35 24.35097 -81.90492 32990 ft 531 kts 64°
2026-05-03 23:36 24.38241 -81.83237 32996 ft 531 kts 64°
2026-05-03 23:36 24.41400 -81.75949 32992 ft 530 kts 63°
2026-05-03 23:37 24.44662 -81.68719 32988 ft 527 kts 60°
2026-05-03 23:37 24.48619 -81.62002 32990 ft 524 kts 50°
2026-05-03 23:38 24.53171 -81.55793 32987 ft 524 kts 47°
2026-05-03 23:38 24.57894 -81.49743 32986 ft 524 kts 46°
2026-05-03 23:39 24.62619 -81.43658 32986 ft 523 kts 47°
2026-05-03 23:39 24.67293 -81.37529 32874 ft 525 kts 47°
2026-05-03 23:40 24.69608 -81.34468 32439 ft 527 kts 48°
2026-05-03 23:40 24.71963 -81.31340 31744 ft 526 kts 48°
2026-05-03 23:40 24.74283 -81.28249 31042 ft 525 kts 48°
2026-05-03 23:40 24.76569 -81.25195 30352 ft 524 kts 48°
2026-05-03 23:41 24.78904 -81.22069 29639 ft 523 kts 48°
2026-05-03 23:41 24.81193 -81.19002 28940 ft 522 kts 48°
2026-05-03 23:41 24.83531 -81.15950 28238 ft 519 kts 46°
2026-05-03 23:41 24.85969 -81.13123 27549 ft 514 kts 40°
2026-05-03 23:42 24.88720 -81.10651 26877 ft 507 kts 31°
2026-05-03 23:42 24.91700 -81.08648 26214 ft 496 kts 23°
2026-05-03 23:42 24.94732 -81.07021 25576 ft 477 kts 19°
2026-05-03 23:42 24.97736 -81.05611 24939 ft 462 kts 17°
2026-05-03 23:43 25.00703 -81.04297 24273 ft 450 kts 16°
2026-05-03 23:43 25.03555 -81.03045 23549 ft 441 kts 16°
2026-05-03 23:43 25.06392 -81.01779 22817 ft 433 kts 16°
2026-05-03 23:43 25.09139 -81.00524 22106 ft 427 kts 17°
2026-05-03 23:44 25.11863 -80.99251 21390 ft 422 kts 18°
2026-05-03 23:44 25.14537 -80.97977 20674 ft 417 kts 18°
2026-05-03 23:44 25.17172 -80.96703 19965 ft 413 kts 18°
2026-05-03 23:44 25.19779 -80.95430 19250 ft 406 kts 19°
2026-05-03 23:45 25.22361 -80.94160 18532 ft 401 kts 19°
2026-05-03 23:45 25.24884 -80.92915 17867 ft 401 kts 20°
2026-05-03 23:45 25.27421 -80.91662 17135 ft 405 kts 20°
2026-05-03 23:45 25.30000 -80.90388 16428 ft 407 kts 20°
2026-05-03 23:46 25.32596 -80.89103 15706 ft 408 kts 20°
2026-05-03 23:46 25.35202 -80.87811 14989 ft 409 kts 21°
2026-05-03 23:46 25.37800 -80.86520 14256 ft 408 kts 21°
2026-05-03 23:46 25.40333 -80.85274 13537 ft 395 kts 20°
2026-05-03 23:47 25.42835 -80.84090 12817 ft 384 kts 19°
2026-05-03 23:47 25.45257 -80.82981 12110 ft 373 kts 18°
2026-05-03 23:47 25.47656 -80.81991 11382 ft 364 kts 16°
2026-05-03 23:47 25.50011 -80.81123 10972 ft 345 kts 14°
2026-05-03 23:48 25.52208 -80.80344 10965 ft 319 kts 14°
2026-05-03 23:48 25.54285 -80.79608 10956 ft 312 kts 14°
2026-05-03 23:48 25.56368 -80.78856 10661 ft 313 kts 15°
2026-05-03 23:48 25.58385 -80.78105 10207 ft 305 kts 15°
2026-05-03 23:49 25.60380 -80.77351 9756 ft 299 kts 15°
2026-05-03 23:49 25.62319 -80.76615 9306 ft 295 kts 15°
2026-05-03 23:49 25.64240 -80.75745 8832 ft 296 kts 25°
2026-05-03 23:49 25.65877 -80.74355 8378 ft 298 kts 46°
2026-05-03 23:50 25.67140 -80.72580 7904 ft 295 kts 53°
2026-05-03 23:50 25.67909 -80.71337 7570 ft 293 kts 54°
2026-05-03 23:50 25.69450 -80.68857 6886 ft 289 kts 53°
2026-05-03 23:50 25.70616 -80.67078 6375 ft 287 kts 52°
2026-05-03 23:51 25.71811 -80.65321 5864 ft 283 kts 51°
2026-05-03 23:51 25.73007 -80.63590 5393 ft 283 kts 51°
2026-05-03 23:51 25.74213 -80.61843 4860 ft 288 kts 51°
2026-05-03 23:51 25.75417 -80.60079 4358 ft 292 kts 52°
2026-05-03 23:52 25.76642 -80.58260 3993 ft 288 kts 54°
2026-05-03 23:52 25.77604 -80.56390 3965 ft 272 kts 68°
2026-05-03 23:52 25.77931 -80.54361 3786 ft 268 kts 91°
2026-05-03 23:52 25.77771 -80.52353 3569 ft 259 kts 93°
2026-05-03 23:53 25.77739 -80.50378 3347 ft 250 kts 86°
2026-05-03 23:53 25.77859 -80.48475 3029 ft 246 kts 84°
2026-05-03 23:53 25.77976 -80.46609 2702 ft 243 kts 85°
2026-05-03 23:53 25.78045 -80.44772 2375 ft 238 kts 86°
2026-05-03 23:54 25.78108 -80.43002 2073 ft 218 kts 85°
2026-05-03 23:54 25.78184 -80.41385 1789 ft 201 kts 84°
2026-05-03 23:54 25.78250 -80.39925 1553 ft 183 kts 84°
2026-05-03 23:54 25.78303 -80.38580 1336 ft 166 kts 84°
2026-05-03 23:55 25.78358 -80.37347 1085 ft 151 kts 84°
2026-05-03 23:55 25.78406 -80.36230 911 ft 144 kts 84°
2026-05-03 23:55 25.78452 -80.35142 735 ft 140 kts 84°
2026-05-03 23:55 25.78499 -80.34069 560 ft 139 kts 84°
2026-05-03 23:56 25.78545 -80.32983 377 ft 140 kts 85°
2026-05-03 23:56 25.78590 -80.31908 198 ft 142 kts 85°
2026-05-03 23:56 25.78634 -80.30812 36 ft 137 kts 85°
2026-05-03 23:56 25.78678 -80.29890 11 ft 95 kts 85°
2026-05-03 23:57 25.78704 -80.29355 14 ft 54 kts 82°
2026-05-03 23:57 25.78712 -80.29005 15 ft 43 kts 88°
2026-05-03 23:57 25.78755 -80.28758 14 ft 22 kts 60°
2026-05-03 23:57 25.78849 -80.28648 14 ft 13 kts 39°
2026-05-03 23:58 25.78914 -80.28596 15 ft 7 kts 35°
2026-05-03 23:58 25.78952 -80.28566 15 ft 0 kts 35°
2026-05-03 23:58 25.78966 -80.28555 14 ft 9 kts 35°
2026-05-03 23:58 25.79032 -80.28503 14 ft 13 kts 36°
2026-05-03 23:59 25.79123 -80.28453 11 ft 14 kts 347°
2026-05-03 23:59 25.79187 -80.28532 12 ft 14 kts 296°
2026-05-03 23:59 25.79249 -80.28603 12 ft 13 kts 355°
2026-05-03 23:59 25.79331 -80.28632 11 ft 12 kts 307°
2026-05-04 00:00 25.79377 -80.28717 12 ft 12 kts 299°
2026-05-04 00:00 25.79443 -80.28793 12 ft 15 kts 348°
2026-05-04 00:00 25.79544 -80.28803 11 ft 14 kts 357°
2026-05-04 00:00 25.79640 -80.28808 11 ft 13 kts 359°
2026-05-04 00:01 25.79726 -80.28809 11 ft 11 kts 354°
2026-05-04 00:01 25.79812 -80.28817 11 ft 12 kts 357°
2026-05-04 00:01 25.79900 -80.28818 11 ft 14 kts 13°
2026-05-04 00:01 25.79936 -80.28732 11 ft 12 kts 82°
2026-05-04 00:02 25.79942 -80.28625 11 ft 17 kts 87°
2026-05-04 00:02 25.79950 -80.28493 11 ft 16 kts 85°
2026-05-04 00:02 25.79955 -80.28369 11 ft 15 kts 90°
2026-05-04 00:02 25.79956 -80.28255 11 ft 14 kts 86°
2026-05-04 00:03 25.79955 -80.28162 11 ft 8 kts 109°
2026-05-04 00:03 25.79913 -80.28128 11 ft 7 kts 168°
2026-05-04 00:03 25.79865 -80.28125 11 ft 7 kts 182°
2026-05-04 00:03 25.79836 -80.28127 11 ft 0 kts 185°